sat.trackr.live / text

‹ back to catalog

STARLINK-33954

NORAD 63863 · 2025-093AD

PAYLOAD ACTIVE UNKNOWN

§ Identity

Operator
Country
US
Launch date
2025-05-07
Launch site
AFETR
Launch vehicle
Mass (kg)
RCS (m²)

Purposes: comms

External: N2YO · Heavens-Above · Gunter

§ Orbital elements

Epoch: 2026-09-19T18:51:57.705984Z

Period
94.27 min
Inclination
43.0025°
Eccentricity
0.0001722
Mean motion
15.27598839 rev/d
Perigee alt
481.8 km
Apogee alt
484.2 km
Semi-major
6,861.1 km
B*
5.5023e-4
RAAN
61.9825°
Arg perigee
265.7346°
Mean anomaly
94.3309°
Rev number
7,743

§ Raw data

STARLINK-339541 63863U 25093AD  26262.78608456  .00014918  00000+0  55023-3 0  99972 63863  43.0025  61.9825 0001722 265.7346  94.3309 15.27598839 77434

JSON: /api/v1/satellites/63863 · /tle

For live sub-satellite position, see the globe view (requires WebGL).

§ Visibility from observer

Set your observer location to see the next 7 days of passes ≥ 10°. The values pass through the URL so the page stays shareable.

No JS? Fill the form by hand. The geolocation button needs JavaScript.